Terminal Aerodrome Forecast
Issued by NWS Pueblo, CO

Home | Current Version | Previous Version | Text Only | Print | Product List | Glossary On
Versions: 1 2 3 4 5 6 7 8 9 10 11 12 13 14 15 16 17 18 19 20 21 22 23 24 25 26 27 28 29 30 31 32 33 34 35 36 37 38 39 40
000
FTUS45 KPUB 270045 AAA
TAFCOS
TAF AMD
KCOS 270045Z 2701/2724 17011KT P6SM FEW110 BKN150
     FM270500 36008KT P6SM SCT150
     FM271600 16010KT P6SM FEW100
     FM271900 06012KT P6SM SCT100
     FM272200 09013KT P6SM VCTS SCT100CB=

USA.gov is the U.S. government's official web portal to all federal, state and local government web resources and services.